STARLINK-11274, 61001

Orbit data source: Space-Track

STARLINK-11274, 61001 is a payload satellite owned by SpaceX/Seattle (US) in LEO that was launched on Thu, 05 Sep 2024 UTC via an FALCON 9 launch vehicle from the Air Force Eastern Test Range (AFETR). Payload-class satellites include a variety of spacecraft equipped with specific instruments for various scientific and technological missions. These include communications satellites like Starlink; space stations such as the ISS; scientific satellites like the Hubble; Earth observation satellites from companies like Planet Labs, Umbra, and HawkEye 360; GPS; miniature CubeSats for education and research; and military/defense satellites.

Loading next visibility...
Identifier
61001, 2024-158M
Orbit
LEO
Last TLE update
13 hours ago
Origin
Manufacturer
SpaceX/Seattle
Mission
Operational Commercial Communications
Bus & Motor
STARLINK V2M, Unknown motor
Mass
730 kg wet, ~700 kg dry
Launch date (UTC)
2024-09-05 (10 months ago)
Launch vehicle
FALCON 9
Launch site
Air Force Eastern Test Range (AFETR)
Object type
Payload
Rocket body
Debris
Shape & HBR
Box + 2 Pan, 29 m
Radar Cross Section
36.964 m², Large (>1 m²)

Expand to show TLE details & history

TLE from 13 hours ago
0 STARLINK-11274
1 61001U 24158M   25191.79511657  .00011537  00000-0  10000-3 0  9998
2 61001  53.1581  33.6214 0001094  66.7413 293.2794 15.69698964 49599
Epoch: 2025-07-10T19:04Z
TLE epoch observation values (Epoch: 2025-07-10T19:04:58.071Z)
Latitude
-0.07461°
Longitude
178.36758°
Altitude
360.392 km
Speed
7.694 km/s
True Right ascension
02h 14m 15s
True Declination
0° 04' 27"
Sunlit
Object was in daylight at epoch
Visualization orbit readout
Latitude
-48.43047°
Longitude
52.84099°
Altitude
377.063 km
Speed
7.683 km/s
Apparent Right ascension
12h 49m 44s
Apparent Declination
-69° 40' 47"
Sunlit
Object is in full shadow
Visualization observer readout
Local Sidereal Time
20:39:19
Azimuth
206.562° SW
Elevation
-46.41°
Doppler factor
1
Orbital elements
Apogee altitude
360.756 km
Perigee altitude
359.282 km
Semi-major axis
6,738.156 km
Eccentricity
0.00011
Inclination
53.1581°
RAAN
33.6214°
Arg. of periapsis
66.7413°
True anomaly
Unknown
Mean anomaly
293.2794°
Eccentric anomaly
Unknown
Mean motion
3.92402 °/min
Orbital period
91.74 mins
BSTAR
0.0001
Loading maneuver chart data...
Loading SW <> Apogee altitude chart data...
Loading historical data...
Loading historical data...
Loading historical data...
Loading historical data...
Loading historical data...
Loading historical data...
Loading historical data...

STARLINK-11274 Visibility forecast

Observer location: undefined°, undefined°

Span
Click to sort rows by Start time (UTC) header in descending order
Start Az.
Max El. time (UTC)
Max El. Az.
Max El.
End time (UTC)
End Az.
4 mins2025-07-11 16:41:47.595Z266.267° W2025-07-11 16:42:47.595Z297.002° NW30.835°2025-07-11 16:45:47.595Z35.321° NE
4 mins2025-07-11 23:06:47.595Z294.813° NW2025-07-11 23:07:47.595Z246.836° WSW41.798°2025-07-11 23:10:47.595Z140.027° SSE
|